Location: Newark
(45.8667°N, 9.7333°E)
Time: 09:37:35
(UTC+00:00)

ITAMSAT 1 - Pass Details

Date: 29 February 2020
Orbit: 784 x 796 km, 98.9° (Epoch: 07 April)

Event Time Altitude Azimuth Distance (km) Brightness Sun altitude
Rises 04:33:03 0° 21° (NNE) 3,310 11.3 -16.1°
Reaches altitude 10° 04:35:33 10° 29° (NNE) 2,376 10.6 -15.7°
Maximum altitude 04:40:26 39° 98° (E) 1,191 9.2 -14.8°
Drops below altitude 10° 04:45:17 10° 166° (SSE) 2,360 10.3 -14.0°
Sets 04:47:45 0° 174° (S) 3,285 10.9 -13.6°
